星链-4281 (STARLINK-4281 )

导读 | 豆包AI

STARLINK-4281是美国太空探索技术公司SpaceX星链星座的一员,于2022年7月7日发射。星链计划旨在构建全球低轨卫星互联网,为偏远地区提供宽带服务。该卫星属于V1.0版本,配备相控阵天线与氪离子推进系统,运行在近地轨道,服务全球网络接入,是SpaceX扩展星链网络的批量发射卫星之一,助力实现全球无缝覆盖低延迟通信。

基本信息
目录编号:
53017
目录名称:
STARLINK-4281
国际标识:
2022-076AH
轨道中心:
EARTH
卫星名称:
星链-4281
卫星全名:
星链-4281 (STARLINK-4281 )
卫星状态:
在轨 (已飞行1393 天)
发射日期:
2022-07-07 UTC
国别 :
美国 (US)
星等 :
--
轨道信息
数据来源 国际轨道数据
星历时间: 2026-04-30T08:00:01+0800
19小时前
查看轨道信息
半长轴: 6861.377km
偏心率: 0.0001218
轨道倾角: 53.218°
近地点辐角 63.847°
升交点赤经 211.868°
平近点角 101.115°
近地点: 482.404km
远地点: 484.076km
周期: 94.271分钟
每日圈数: 15.275165
详细信息
固有亮度:
5
最大亮度:
2.5
卫星平台:
Starlink v1.5
覆盖范围:
全球
运营商:
太空探索技术公司
运营商所在国:
美国
制造商(研发单位):
太空探索技术公司
制造商所在国:
美国
使用方式:
暂无
卫星简介
星链(Starlink)计划是由太空探索技术公司(SpaceX)提出的一个巨型低轨卫星互联网星座项目,计划在2019年至2024年间在太空搭建由约1.2万颗卫星组成的“星链”网络,其中1584颗将部署在地球上空550千米处的近地轨道,并从2020年开始工作。该卫星仍在工作。
2D轨道图
3D轨道图
轨道高度分析图
轨道倾角分析图
轨道综合分析图
查看轨道综合分析图